Weather Roundup
Issued by NWS Springfield, MO

Home | Current Version | Previous Version | Text Only | Print | Product List | Glossary On
Versions: 1 2 3 4 5 6 7 8 9 10 11 12 13 14 15 16 17 18 19 20 21 22 23 24 25 26 27 28 29 30 31 32 33 34 35 36 37 38 39 40 41 42 43 44 45 46 47 48 49 50
000
NZUS99 KSGF 031159
HRRSGF

HOURLY WEATHER
NATIONAL WEATHER SERVICE SPRINGFIELD MO
600 AM CST TUE MAR 03 2015

......SGF CWA......

CITY           SKY/WX    TMP DP  RH WIND       PRES   REMARKS
SPRINGFIELD    CLOUDY    34  33  96 S9        29.89R FOG     WCI  27
6HR MIN TEMP:  33; 6HR MAX TEMP:  34; 6HR PCP: TRACE;

JOPLIN         CLOUDY    38  37  97 S16G24    29.87F FOG     WCI  29
6HR MIN TEMP:  35; 6HR MAX TEMP:  38;

WEST PLAINS    CLOUDY    33  31  92 S5        29.97S FOG     WCI  29
6HR MIN TEMP:  30; 6HR MAX TEMP:  33;

ROLLA          CLOUDY    34  32  92 S9        29.88F FOG     WCI  27
6HR MIN TEMP:  33; 6HR MAX TEMP:  34; 6HR PCP: TRACE;

OSAGE BEACH    CLOUDY    34  30  86 SE8       29.88F WCI  27

......SURROUNDING SGF CWA......

CITY           SKY/WX    TMP DP  RH WIND       PRES   REMARKS
CHANUTE        FOG       37  37 100 S18       29.82S VSB 3/4 WCI  27
PARSONS        CLOUDY    37  37 100 S14       29.86F FOG     WCI  28
COFFEYVILLE    CLOUDY    37  37 100 S15       29.87F FOG     WCI  28
EMPORIA        CLOUDY    37  36  96 S26G38    29.69F FOG     WCI  25
ROGERS AR      FOG       39  39 100 SW7       29.93R VSB 1/4 WCI  34
SILOAM SPRINGS CLOUDY    39  34  81 SW13G18   29.96R VSB 1/2 WCI  32
HARRISON AR    CLOUDY    38  38 100 SE9       29.92S FOG     WCI  31
NEAR YELLVILLE CLOUDY    37  32  81 SE5       29.95R WCI  34

......KANSAS AND MISSOURI......

CITY           SKY/WX    TMP DP  RH WIND       PRES   REMARKS
KANSAS CTY INT DRIZZLE   36  35  96 SW20G28   29.74S WCI  25
DOWNTOWN KC    CLOUDY    38  35  89 S15G25    29.75F WCI  29
COLUMBIA       CLOUDY    34  31  88 S13       29.84F WCI  25
SEDALIA        CLOUDY    36  32  85 S21       29.78F WCI  25
ST JOSEPH      CLOUDY    35  34  96 S10       29.74F FOG     WCI  27
ST LOUIS       LGT RAIN  35  25  66 SE10      29.94F WCI  27
SPIRIT OF STL  LGT RAIN  32  27  81 E5        29.92F WCI  27
KIRKSVILLE     CLOUDY    30  30 100 S14       29.77F FOG     WCI  19
WICHITA        CLOUDY    36  34  92 S20G31    29.76R WCI  25
TOPEKA         CLOUDY    38  35  89 SW10      29.74R WCI  31
OLATHE         CLOUDY    36  35  96 S17G25    29.72F FOG     WCI  26

......TENNESSEE......

CITY           SKY/WX    TMP DP  RH WIND       PRES   REMARKS
MEMPHIS        CLOUDY    46  44  93 SW3       30.09R FOG
NASHVILLE      CLOUDY    46  42  86 S6        30.12F

......ARKANSAS.......

CITY           SKY/WX    TMP DP  RH WIND       PRES   REMARKS
FAYETTEVILLE   CLOUDY    42  42 100 SW14      29.93S FOG
FT SMITH       CLOUDY    36  34  92 NE9       30.01R FOG     WCI  29
LITTLE ROCK    FOG       36  33  89 S3        30.09S VSB 1/2

......OKLAHOMA.......

CITY           SKY/WX    TMP DP  RH WIND       PRES   REMARKS
TULSA          CLOUDY    40  39  97 S20       29.90F WCI  30
PONCA CITY     CLOUDY    41  38  89 S12       29.86R
MCALESTER      CLOUDY    40  38  93 S10       29.99S FOG     WCI  33
OKLAHOMA CITY  CLOUDY    39  36  89 S20G26    29.90R FOG     WCI  29

......IOWA............

CITY           SKY/WX    TMP DP  RH WIND       PRES   REMARKS
DES MOINES     FRZ DRZL  31  26  82 S12       29.71F WCI  22
QUAD CITIES    FRZ RAIN  28  25  88 SE14G24   29.82F FOG     WCI  17

......ILLINOIS........

CITY           SKY/WX    TMP DP  RH WIND       PRES   REMARKS
QUINCY         CLOUDY    29  26  89 S14       29.83F FOG     WCI  18
CHICAGO        LGT SNOW  24  22  91 SE13      29.96F FOG     WCI  12



USA.gov is the U.S. government's official web portal to all federal, state and local government web resources and services.